Time,TemperatureF,DewpointF,PressureIn,WindDirection,WindDirectionDegrees,WindSpeedMPH,WindSpeedGustMPH,Humidity,HourlyPrecipIn,Conditions,Clouds,dailyrainin,SoftwareType,DateUTC
2013-01-07 00:03:00,39.0,25.0,-100.00,East,85,10.0,19.0,58,0.00,,,0.00,,2013-01-07 05:03:00,
2013-01-07 00:12:00,39.0,25.0,-100.00,East,85,10.0,19.0,58,0.00,,,0.00,,2013-01-07 05:12:00,
2013-01-07 00:33:00,38.0,25.0,-100.00,ENE,70,9.0,19.0,58,0.00,,,0.00,,2013-01-07 05:33:00,
2013-01-07 00:43:00,38.0,25.0,-100.00,ENE,70,9.0,19.0,58,0.00,,,0.00,,2013-01-07 05:43:00,
2013-01-07 00:53:00,38.0,25.0,-100.00,ENE,70,9.0,19.0,58,0.00,,,0.00,,2013-01-07 05:53:00,
2013-01-07 01:02:00,38.0,25.0,-100.00,East,80,8.0,19.0,58,0.00,,,0.00,,2013-01-07 06:02:00,
2013-01-07 01:12:00,38.0,25.0,-100.00,East,80,8.0,19.0,58,0.00,,,0.00,,2013-01-07 06:12:00,
2013-01-07 01:22:00,38.0,25.0,-100.00,East,85,8.0,18.0,59,0.00,,,0.00,,2013-01-07 06:22:00,
2013-01-07 01:32:00,38.0,25.0,-100.00,East,85,8.0,18.0,59,0.00,,,0.00,,2013-01-07 06:32:00,
2013-01-07 01:42:00,38.0,25.0,-100.00,East,80,11.0,16.0,59,0.00,,,0.00,,2013-01-07 06:42:00,
2013-01-07 01:52:00,38.0,25.0,-100.00,East,80,11.0,16.0,59,0.00,,,0.00,,2013-01-07 06:52:00,
2013-01-07 02:02:00,37.0,25.0,-100.00,East,85,3.0,13.0,60,0.00,,,0.00,,2013-01-07 07:02:00,
2013-01-07 02:12:00,37.0,25.0,-100.00,East,85,3.0,13.0,60,0.00,,,0.00,,2013-01-07 07:12:00,
2013-01-07 02:22:00,37.0,24.0,-100.00,ENE,70,9.0,21.0,60,0.00,,,0.00,,2013-01-07 07:22:00,
2013-01-07 02:33:00,37.0,24.0,-100.00,ENE,70,9.0,21.0,60,0.00,,,0.00,,2013-01-07 07:33:00,
2013-01-07 02:42:00,36.0,24.0,-100.00,East,85,13.0,24.0,61,0.00,,,0.00,,2013-01-07 07:42:00,
2013-01-07 02:53:00,36.0,24.0,-100.00,East,85,13.0,24.0,61,0.00,,,0.00,,2013-01-07 07:53:00,
2013-01-07 03:03:00,36.0,24.0,-100.00,ENE,65,9.0,23.0,61,0.00,,,0.00,,2013-01-07 08:03:00,
2013-01-07 03:12:00,36.0,24.0,-100.00,ENE,65,9.0,23.0,61,0.00,,,0.00,,2013-01-07 08:12:00,
2013-01-07 03:22:00,36.0,24.0,-100.00,East,80,12.0,23.0,62,0.00,,,0.00,,2013-01-07 08:22:00,
2013-01-07 03:33:00,36.0,24.0,-100.00,East,80,12.0,23.0,62,0.00,,,0.00,,2013-01-07 08:33:00,
2013-01-07 03:43:00,35.0,24.0,-100.00,East,90,13.0,21.0,62,0.00,,,0.00,,2013-01-07 08:43:00,
2013-01-07 03:53:00,35.0,24.0,-100.00,East,90,13.0,21.0,62,0.00,,,0.00,,2013-01-07 08:53:00,
2013-01-07 04:02:00,35.0,24.0,-100.00,East,85,9.0,23.0,64,0.00,,,0.00,,2013-01-07 09:02:00,
2013-01-07 04:12:00,35.0,24.0,-100.00,East,85,9.0,23.0,64,0.00,,,0.00,,2013-01-07 09:12:00,
2013-01-07 04:23:00,35.0,24.0,-100.00,NE,50,9.0,21.0,63,0.00,,,0.00,,2013-01-07 09:23:00,
2013-01-07 04:32:00,35.0,24.0,-100.00,NE,50,9.0,21.0,63,0.00,,,0.00,,2013-01-07 09:32:00,
2013-01-07 04:42:00,34.0,24.0,-100.00,NE,45,9.0,23.0,64,0.00,,,0.00,,2013-01-07 09:42:00,
2013-01-07 04:53:00,34.0,24.0,-100.00,NE,45,9.0,23.0,64,0.00,,,0.00,,2013-01-07 09:53:00,
2013-01-07 05:02:00,34.0,23.0,-100.00,East,80,13.0,23.0,64,0.00,,,0.00,,2013-01-07 10:02:00,
2013-01-07 05:12:00,34.0,23.0,-100.00,East,80,13.0,23.0,64,0.00,,,0.00,,2013-01-07 10:12:00,
2013-01-07 05:22:00,34.0,23.0,-100.00,NE,55,10.0,16.0,64,0.00,,,0.00,,2013-01-07 10:22:00,
2013-01-07 05:33:00,34.0,23.0,-100.00,NE,55,10.0,16.0,64,0.00,,,0.00,,2013-01-07 10:33:00,
2013-01-07 05:42:00,33.0,22.0,-100.00,NNE,30,0.0,18.0,65,0.00,,,0.00,,2013-01-07 10:42:00,
2013-01-07 05:53:00,32.0,22.0,-100.00,East,90,11.0,21.0,66,0.00,,,0.00,,2013-01-07 10:53:00,
2013-01-07 06:02:00,32.0,22.0,-100.00,East,90,11.0,21.0,66,0.00,,,0.00,,2013-01-07 11:02:00,
2013-01-07 06:12:00,32.0,22.0,-100.00,East,90,11.0,21.0,66,0.00,,,0.00,,2013-01-07 11:12:00,
2013-01-07 06:23:00,31.0,22.0,-100.00,ENE,65,5.0,13.0,68,0.00,,,0.00,,2013-01-07 11:23:00,
2013-01-07 06:33:00,31.0,22.0,-100.00,ENE,65,5.0,13.0,68,0.00,,,0.00,,2013-01-07 11:33:00,
2013-01-07 06:43:00,31.0,22.0,-100.00,ENE,65,0.0,18.0,69,0.00,,,0.00,,2013-01-07 11:43:00,
2013-01-07 06:53:00,31.0,22.0,-100.00,ENE,65,0.0,18.0,69,0.00,,,0.00,,2013-01-07 11:53:00,
2013-01-07 07:03:00,31.0,22.0,-100.00,ENE,75,9.0,13.0,71,0.00,,,0.00,,2013-01-07 12:03:00,
2013-01-07 07:12:00,31.0,22.0,-100.00,ENE,75,9.0,13.0,71,0.00,,,0.00,,2013-01-07 12:12:00,
2013-01-07 07:23:00,31.0,22.0,-100.00,ENE,70,9.0,18.0,71,0.00,,,0.00,,2013-01-07 12:23:00,
2013-01-07 07:33:00,31.0,22.0,-100.00,ENE,70,9.0,18.0,71,0.00,,,0.00,,2013-01-07 12:33:00,
2013-01-07 07:43:00,30.0,22.0,-100.00,East,80,2.0,16.0,72,0.00,,,0.00,,2013-01-07 12:43:00,
2013-01-07 07:53:00,30.0,22.0,-100.00,East,80,2.0,16.0,72,0.00,,,0.00,,2013-01-07 12:53:00,
2013-01-07 08:03:00,30.0,22.0,-100.00,East,85,8.0,13.0,74,0.00,,,0.00,,2013-01-07 13:03:00,
2013-01-07 08:12:00,30.0,22.0,-100.00,East,85,8.0,13.0,74,0.00,,,0.00,,2013-01-07 13:12:00,
2013-01-07 08:23:00,29.0,22.0,-100.00,East,80,1.0,13.0,75,0.00,,,0.00,,2013-01-07 13:23:00,
2013-01-07 08:33:00,29.0,22.0,-100.00,East,80,1.0,13.0,75,0.00,,,0.00,,2013-01-07 13:33:00,
2013-01-07 08:43:00,30.0,23.0,-100.00,ENE,70,9.0,15.0,75,0.00,,,0.00,,2013-01-07 13:43:00,
2013-01-07 08:53:00,30.0,23.0,-100.00,ENE,70,9.0,15.0,75,0.00,,,0.00,,2013-01-07 13:53:00,
2013-01-07 09:03:00,30.0,23.0,-100.00,ENE,60,9.0,16.0,76,0.00,,,0.00,,2013-01-07 14:03:00,
2013-01-07 09:13:00,30.0,23.0,-100.00,ENE,60,9.0,16.0,76,0.00,,,0.00,,2013-01-07 14:13:00,
2013-01-07 09:23:00,31.0,24.0,-100.00,ENE,65,0.0,18.0,75,0.00,,,0.00,,2013-01-07 14:23:00,
2013-01-07 09:33:00,31.0,24.0,-100.00,ENE,65,0.0,18.0,75,0.00,,,0.00,,2013-01-07 14:33:00,
2013-01-07 09:43:00,32.0,24.0,-100.00,ENE,65,8.0,13.0,73,0.00,,,0.00,,2013-01-07 14:43:00,
2013-01-07 09:53:00,32.0,24.0,-100.00,ENE,65,8.0,13.0,73,0.00,,,0.00,,2013-01-07 14:53:00,
2013-01-07 10:03:00,33.0,24.0,-100.00,East,80,8.0,15.0,70,0.00,,,0.00,,2013-01-07 15:03:00,
2013-01-07 10:12:00,33.0,24.0,-100.00,East,80,8.0,15.0,70,0.00,,,0.00,,2013-01-07 15:12:00,
2013-01-07 10:23:00,33.0,24.0,-100.00,East,80,6.0,13.0,68,0.00,,,0.00,,2013-01-07 15:23:00,
2013-01-07 10:33:00,33.0,24.0,-100.00,East,80,6.0,13.0,68,0.00,,,0.00,,2013-01-07 15:33:00,
2013-01-07 10:43:00,34.0,24.0,-100.00,ENE,60,7.0,15.0,68,0.00,,,0.00,,2013-01-07 15:43:00,
2013-01-07 10:53:00,34.0,24.0,-100.00,ENE,60,7.0,15.0,68,0.00,,,0.00,,2013-01-07 15:53:00,
2013-01-07 11:03:00,36.0,25.0,-100.00,East,95,5.0,15.0,64,0.00,,,0.00,,2013-01-07 16:03:00,
2013-01-07 11:12:00,36.0,25.0,-100.00,East,95,5.0,15.0,64,0.00,,,0.00,,2013-01-07 16:12:00,
2013-01-07 11:23:00,36.0,25.0,-100.00,East,80,4.0,16.0,64,0.00,,,0.00,,2013-01-07 16:23:00,
2013-01-07 11:33:00,36.0,25.0,-100.00,East,80,4.0,16.0,64,0.00,,,0.00,,2013-01-07 16:33:00,
2013-01-07 11:43:00,36.0,25.0,-100.00,ENE,70,8.0,13.0,63,0.00,,,0.00,,2013-01-07 16:43:00,
2013-01-07 11:53:00,36.0,25.0,-100.00,ENE,70,8.0,13.0,63,0.00,,,0.00,,2013-01-07 16:53:00,
2013-01-07 12:03:00,37.0,25.0,-100.00,East,80,8.0,15.0,62,0.00,,,0.00,,2013-01-07 17:03:00,
2013-01-07 12:12:00,37.0,25.0,-100.00,East,80,8.0,15.0,62,0.00,,,0.00,,2013-01-07 17:12:00,
2013-01-07 12:23:00,37.0,25.0,-100.00,East,85,8.0,13.0,60,0.00,,,0.00,,2013-01-07 17:23:00,
2013-01-07 12:33:00,37.0,25.0,-100.00,East,85,8.0,13.0,60,0.00,,,0.00,,2013-01-07 17:33:00,
2013-01-07 12:42:00,37.0,24.0,-100.00,NE,40,0.0,15.0,60,0.00,,,0.00,,2013-01-07 17:42:00,
2013-01-07 12:53:00,37.0,24.0,-100.00,NE,40,0.0,15.0,60,0.00,,,0.00,,2013-01-07 17:53:00,
2013-01-07 13:03:00,38.0,25.0,-100.00,ENE,65,8.0,13.0,59,0.00,,,0.00,,2013-01-07 18:03:00,
2013-01-07 13:13:00,38.0,25.0,-100.00,ENE,65,8.0,13.0,59,0.00,,,0.00,,2013-01-07 18:13:00,
2013-01-07 13:23:00,38.0,24.0,-100.00,NE,40,8.0,13.0,58,0.00,,,0.00,,2013-01-07 18:23:00,
2013-01-07 13:33:00,38.0,24.0,-100.00,NE,40,8.0,13.0,58,0.00,,,0.00,,2013-01-07 18:33:00,
2013-01-07 13:43:00,38.0,25.0,-100.00,NE,55,8.0,13.0,58,0.00,,,0.00,,2013-01-07 18:43:00,
2013-01-07 13:53:00,38.0,25.0,-100.00,NE,55,8.0,13.0,58,0.00,,,0.00,,2013-01-07 18:53:00,
2013-01-07 14:03:00,38.0,24.0,-100.00,NE,40,9.0,15.0,57,0.00,,,0.00,,2013-01-07 19:03:00,
2013-01-07 14:12:00,38.0,24.0,-100.00,NE,40,9.0,15.0,57,0.00,,,0.00,,2013-01-07 19:12:00,
2013-01-07 14:23:00,40.0,25.0,-100.00,East,80,3.0,13.0,55,0.00,,,0.00,,2013-01-07 19:23:00,
2013-01-07 14:33:00,40.0,25.0,-100.00,East,80,3.0,13.0,55,0.00,,,0.00,,2013-01-07 19:33:00,
2013-01-07 14:43:00,40.0,25.0,-100.00,ENE,65,4.0,11.0,55,0.00,,,0.00,,2013-01-07 19:43:00,
2013-01-07 14:53:00,40.0,25.0,-100.00,ENE,65,4.0,11.0,55,0.00,,,0.00,,2013-01-07 19:53:00,
2013-01-07 15:03:00,42.0,25.0,-100.00,East,90,0.0,3.0,52,0.00,,,0.00,,2013-01-07 20:03:00,
2013-01-07 15:13:00,42.0,25.0,-100.00,East,90,0.0,3.0,52,0.00,,,0.00,,2013-01-07 20:13:00,
2013-01-07 15:23:00,40.0,24.0,-100.00,NE,40,0.0,11.0,53,0.00,,,0.00,,2013-01-07 20:23:00,
2013-01-07 15:33:00,40.0,24.0,-100.00,NE,40,0.0,11.0,53,0.00,,,0.00,,2013-01-07 20:33:00,
2013-01-07 15:43:00,41.0,25.0,-100.00,East,90,0.0,0.0,52,0.00,,,0.00,,2013-01-07 20:43:00,
2013-01-07 15:53:00,41.0,25.0,-100.00,East,90,0.0,0.0,52,0.00,,,0.00,,2013-01-07 20:53:00,
2013-01-07 16:03:00,42.0,25.0,-100.00,NE,50,0.0,0.0,50,0.00,,,0.00,,2013-01-07 21:03:00,
2013-01-07 16:12:00,42.0,25.0,-100.00,NE,50,0.0,0.0,50,0.00,,,0.00,,2013-01-07 21:12:00,
2013-01-07 16:23:00,43.0,25.0,-100.00,SSW,200,0.0,0.0,49,0.00,,,0.00,,2013-01-07 21:23:00,
2013-01-07 16:33:00,43.0,25.0,-100.00,SSW,200,0.0,0.0,49,0.00,,,0.00,,2013-01-07 21:33:00,
2013-01-07 16:43:00,41.0,24.0,-100.00,NW,305,0.0,2.0,51,0.00,,,0.00,,2013-01-07 21:43:00,
2013-01-07 16:53:00,41.0,24.0,-100.00,NW,305,0.0,2.0,51,0.00,,,0.00,,2013-01-07 21:53:00,
2013-01-07 17:03:00,40.0,24.0,-100.00,WSW,250,0.0,0.0,53,0.00,,,0.00,,2013-01-07 22:03:00,
2013-01-07 17:12:00,40.0,24.0,-100.00,WSW,250,0.0,0.0,53,0.00,,,0.00,,2013-01-07 22:12:00,
2013-01-07 17:23:00,39.0,24.0,-100.00,WSW,255,0.0,0.0,55,0.00,,,0.00,,2013-01-07 22:23:00,
2013-01-07 17:33:00,39.0,24.0,-100.00,WSW,255,0.0,0.0,55,0.00,,,0.00,,2013-01-07 22:33:00,
2013-01-07 17:43:00,38.0,24.0,-100.00,WSW,250,0.0,0.0,56,0.00,,,0.00,,2013-01-07 22:43:00,
2013-01-07 17:53:00,38.0,24.0,-100.00,WSW,250,0.0,0.0,56,0.00,,,0.00,,2013-01-07 22:53:00,
2013-01-07 18:03:00,37.0,24.0,-100.00,WSW,240,0.0,0.0,57,0.00,,,0.00,,2013-01-07 23:03:00,
2013-01-07 18:12:00,37.0,24.0,-100.00,WSW,240,0.0,0.0,57,0.00,,,0.00,,2013-01-07 23:12:00,
2013-01-07 18:23:00,37.0,24.0,-100.00,SW,220,0.0,0.0,58,0.00,,,0.00,,2013-01-07 23:23:00,
2013-01-07 18:33:00,37.0,24.0,-100.00,SW,220,0.0,0.0,58,0.00,,,0.00,,2013-01-07 23:33:00,
2013-01-07 18:43:00,37.0,24.0,-100.00,SW,220,0.0,0.0,58,0.00,,,0.00,,2013-01-07 23:43:00,
2013-01-07 18:53:00,37.0,24.0,-100.00,SW,220,0.0,0.0,58,0.00,,,0.00,,2013-01-07 23:53:00,
2013-01-07 19:03:00,37.0,23.0,-100.00,SW,220,0.0,0.0,58,0.00,,,0.00,,2013-01-08 00:03:00,
2013-01-07 19:12:00,37.0,23.0,-100.00,SW,220,0.0,0.0,58,0.00,,,0.00,,2013-01-08 00:12:00,
2013-01-07 19:23:00,37.0,23.0,-100.00,SW,225,0.0,0.0,58,0.00,,,0.00,,2013-01-08 00:23:00,
2013-01-07 19:33:00,37.0,23.0,-100.00,SW,225,0.0,0.0,58,0.00,,,0.00,,2013-01-08 00:33:00,
2013-01-07 19:42:00,36.0,24.0,-100.00,SW,235,0.0,0.0,59,0.00,,,0.00,,2013-01-08 00:42:00,
2013-01-07 19:53:00,36.0,24.0,-100.00,SW,235,0.0,0.0,59,0.00,,,0.00,,2013-01-08 00:53:00,
2013-01-07 20:03:00,36.0,24.0,-100.00,SW,230,0.0,6.0,60,0.00,,,0.00,,2013-01-08 01:03:00,
2013-01-07 20:12:00,36.0,24.0,-100.00,SW,230,0.0,6.0,60,0.00,,,0.00,,2013-01-08 01:12:00,
2013-01-07 20:22:00,36.0,24.0,-100.00,SW,235,0.0,3.0,60,0.00,,,0.00,,2013-01-08 01:22:00,
2013-01-07 20:33:00,36.0,24.0,-100.00,SW,235,0.0,3.0,60,0.00,,,0.00,,2013-01-08 01:33:00,
2013-01-07 20:42:00,36.0,24.0,-100.00,WSW,245,0.0,3.0,60,0.00,,,0.00,,2013-01-08 01:42:00,
2013-01-07 20:53:00,36.0,24.0,-100.00,WSW,245,0.0,3.0,60,0.00,,,0.00,,2013-01-08 01:53:00,
2013-01-07 21:02:00,36.0,24.0,-100.00,WSW,240,0.0,6.0,61,0.00,,,0.00,,2013-01-08 02:02:00,
2013-01-07 21:12:00,36.0,24.0,-100.00,WSW,240,0.0,6.0,61,0.00,,,0.00,,2013-01-08 02:12:00,
2013-01-07 21:22:00,35.0,24.0,-100.00,SW,220,8.0,11.0,64,0.00,,,0.00,,2013-01-08 02:22:00,
2013-01-07 21:33:00,35.0,24.0,-100.00,SW,220,8.0,11.0,64,0.00,,,0.00,,2013-01-08 02:33:00,
2013-01-07 21:42:00,34.0,24.0,-100.00,SW,235,0.0,5.0,65,0.00,,,0.00,,2013-01-08 02:42:00,
2013-01-07 21:53:00,34.0,24.0,-100.00,SW,235,0.0,5.0,65,0.00,,,0.00,,2013-01-08 02:53:00,
2013-01-07 22:03:00,34.0,24.0,-100.00,WSW,245,7.0,11.0,66,0.00,,,0.00,,2013-01-08 03:03:00,
2013-01-07 22:12:00,34.0,24.0,-100.00,WSW,245,7.0,11.0,66,0.00,,,0.00,,2013-01-08 03:12:00,
2013-01-07 22:22:00,33.0,24.0,-100.00,WSW,240,8.0,13.0,68,0.00,,,0.00,,2013-01-08 03:22:00,
2013-01-07 22:33:00,33.0,24.0,-100.00,WSW,240,8.0,13.0,68,0.00,,,0.00,,2013-01-08 03:33:00,
2013-01-07 22:43:00,33.0,24.0,-100.00,WSW,255,8.0,15.0,69,0.00,,,0.00,,2013-01-08 03:43:00,
2013-01-07 22:53:00,33.0,24.0,-100.00,WSW,255,8.0,15.0,69,0.00,,,0.00,,2013-01-08 03:53:00,
2013-01-07 23:02:00,33.0,24.0,-100.00,WSW,250,7.0,15.0,70,0.00,,,0.00,,2013-01-08 04:02:00,
2013-01-07 23:12:00,33.0,24.0,-100.00,WSW,250,7.0,15.0,70,0.00,,,0.00,,2013-01-08 04:12:00,
2013-01-07 23:22:00,33.0,24.0,-100.00,WSW,240,8.0,11.0,70,0.00,,,0.00,,2013-01-08 04:22:00,
2013-01-07 23:32:00,33.0,24.0,-100.00,WSW,240,8.0,11.0,70,0.00,,,0.00,,2013-01-08 04:32:00,
2013-01-07 23:42:00,33.0,25.0,-100.00,SW,230,6.0,11.0,71,0.00,,,0.00,,2013-01-08 04:42:00,
2013-01-07 23:52:00,33.0,25.0,-100.00,SW,230,6.0,11.0,71,0.00,,,0.00,,2013-01-08 04:52:00,